,,,PA_Meas_PMT16A,,PR_Meas_QMR101_102,,RH_Meas_QMH101,,SR_Meas_QMS101,,TA_Meas_QMH101,,GenWind,,GenWind,
date,time,status,PA,status,PR,status,RH,status,SR,status,TA,status,DirAvg,status,SpdAvg,
2008-03-23, 00:00:04,VALID,1004.1,VALID,0,VALID,94.888,VALID,0.100563,VALID,23.9779,VALID,357,VALID,0.291016,
2008-03-23, 00:01:04,VALID,1004.15,VALID,0,VALID,94.8651,VALID,0.100563,VALID,23.9779,VALID,357,VALID,0.35,
2008-03-23, 00:02:04,VALID,1004.11,VALID,0,VALID,94.7965,VALID,0,VALID,23.9779,VALID,357,VALID,0.290234,
2008-03-23, 00:03:04,VALID,1004.14,VALID,0,VALID,94.7888,VALID,0,VALID,23.9779,VALID,357,VALID,0.361719,
2008-03-23, 00:04:04,VALID,1004.09,VALID,0,VALID,94.7888,VALID,0,VALID,23.9584,VALID,358,VALID,0.472266,
2008-03-23, 00:05:04,VALID,1004.06,VALID,0,VALID,94.8194,VALID,0.100563,VALID,23.9584,VALID,358,VALID,0.441797,
2008-03-23, 00:06:04,VALID,1004.09,VALID,0,VALID,94.8956,VALID,0,VALID,23.9389,VALID,1,VALID,0.478516,
2008-03-23, 00:07:04,VALID,1004.08,VALID,0,VALID,94.9338,VALID,0.100563,VALID,23.9584,VALID,8,VALID,0.546484,
2008-03-23, 00:08:04,VALID,1004.07,VALID,0,VALID,94.8804,VALID,0,VALID,23.9389,VALID,18,VALID,0.416016,
2008-03-23, 00:09:04,VALID,1004.05,VALID,0,VALID,94.8194,VALID,0,VALID,23.9195,VALID,18,VALID,0.260938,
2008-03-23, 00:10:04,VALID,1004.07,VALID,0,VALID,94.9643,VALID,0,VALID,23.9389,VALID,18,VALID,0.359375,
2008-03-23, 00:11:04,VALID,1004.07,VALID,0,VALID,94.888,VALID,0,VALID,23.9389,VALID,18,VALID,0.449219,
2008-03-23, 00:12:04,VALID,1004.07,VALID,0,VALID,94.8117,VALID,0,VALID,23.9195,VALID,18,VALID,0.471484,
2008-03-23, 00:13:04,VALID,1004.09,VALID,0,VALID,94.7965,VALID,0,VALID,23.9195,VALID,18,VALID,0.525781,
2008-03-23, 00:14:04,VALID,1004.12,VALID,0,VALID,94.7965,VALID,0,VALID,23.9195,VALID,18,VALID,0.545313,
2008-03-23, 00:15:04,VALID,1004.07,VALID,0,VALID,94.7736,VALID,0,VALID,23.9,VALID,18,VALID,0.424219,
2008-03-23, 00:16:04,VALID,1004.05,VALID,0,VALID,94.7202,VALID,0.100563,VALID,23.9,VALID,18,VALID,0.400391,
2008-03-23, 00:17:04,VALID,1004.03,VALID,0,VALID,94.7354,VALID,0,VALID,23.8398,VALID,18,VALID,0.457812,
2008-03-23, 00:18:04,VALID,1004.01,VALID,0,VALID,94.7965,VALID,0,VALID,23.8611,VALID,18,VALID,0.510547,
2008-03-23, 00:19:04,VALID,1004,VALID,0,VALID,94.8651,VALID,0,VALID,23.8629,VALID,18,VALID,0.409766,
2008-03-23, 00:20:04,VALID,1003.97,VALID,0,VALID,95.033,VALID,0,VALID,23.8805,VALID,18,VALID,0.464844,
2008-03-23, 00:21:04,VALID,1003.98,VALID,0,VALID,95.0406,VALID,0,VALID,23.8805,VALID,18,VALID,0.173047,
2008-03-23, 00:22:04,VALID,1003.98,VALID,0,VALID,95.1016,VALID,0,VALID,23.9,VALID,18,VALID,0.224219,
2008-03-23, 00:23:04,VALID,1004,VALID,0,VALID,95.0177,VALID,0,VALID,23.9177,VALID,9,VALID,0.427344,
2008-03-23, 00:24:04,VALID,1003.97,VALID,0,VALID,94.827,VALID,0,VALID,23.9602,VALID,354,VALID,0.432031,
2008-03-23, 00:25:04,VALID,1003.98,VALID,0,VALID,94.8117,VALID,0,VALID,23.9389,VALID,354,VALID,0.35,
2008-03-23, 00:26:04,VALID,1003.96,VALID,0,VALID,94.7736,VALID,0,VALID,23.9584,VALID,354,VALID,0.266016,
2008-03-23, 00:27:04,VALID,1003.96,VALID,0,VALID,94.766,VALID,0,VALID,23.9584,VALID,354,VALID,0.234766,
2008-03-23, 00:28:04,VALID,1003.92,VALID,0,VALID,94.7431,VALID,0,VALID,23.9779,VALID,354,VALID,0.241016,
2008-03-23, 00:29:04,VALID,1003.91,VALID,0,VALID,94.7125,VALID,0,VALID,23.9779,VALID,353,VALID,0.146094,
2008-03-23, 00:30:04,VALID,1003.9,VALID,0,VALID,94.5066,VALID,0,VALID,23.9779,VALID,353,VALID,0.43125,
2008-03-23, 00:31:04,VALID,1003.89,VALID,0,VALID,94.3845,VALID,0,VALID,23.9389,VALID,354,VALID,0.528516,
2008-03-23, 00:32:04,VALID,1003.86,VALID,0,VALID,94.3235,VALID,0,VALID,23.9195,VALID,358,VALID,0.674609,
2008-03-23, 00:33:04,VALID,1003.85,VALID,0,VALID,94.2319,VALID,0,VALID,23.8805,VALID,360,VALID,0.572656,
2008-03-23, 00:34:04,VALID,1003.84,VALID,0,VALID,94.2777,VALID,0,VALID,23.8416,VALID,360,VALID,0.5125,
2008-03-23, 00:35:04,VALID,1003.81,VALID,0,VALID,94.4837,VALID,0,VALID,23.8416,VALID,360,VALID,0.524609,
2008-03-23, 00:36:04,VALID,1003.81,VALID,0,VALID,94.6057,VALID,0,VALID,23.8221,VALID,360,VALID,0.507813,
2008-03-23, 00:37:04,VALID,1003.8,VALID,0,VALID,94.7354,VALID,0,VALID,23.8221,VALID,359,VALID,0.521094,
2008-03-23, 00:38:04,VALID,1003.77,VALID,0,VALID,94.7507,VALID,0,VALID,23.8027,VALID,351,VALID,0.588672,
2008-03-23, 00:39:04,VALID,1003.76,VALID,0,VALID,94.9262,VALID,0,VALID,23.8416,VALID,350,VALID,0.738281,
2008-03-23, 00:40:04,VALID,1003.75,VALID,0,VALID,94.949,VALID,0,VALID,23.8611,VALID,342,VALID,0.684375,
2008-03-23, 00:41:04,VALID,1003.75,VALID,0,VALID,94.9643,VALID,0,VALID,23.9195,VALID,346,VALID,0.680859,
2008-03-23, 00:42:04,VALID,1003.74,VALID,0,VALID,94.766,VALID,0,VALID,23.9779,VALID,351,VALID,0.523828,
2008-03-23, 00:43:04,VALID,1003.72,VALID,0,VALID,94.5447,VALID,0,VALID,24.0576,VALID,348,VALID,0.455078,
2008-03-23, 00:44:04,VALID,1003.71,VALID,0,VALID,94.354,VALID,0,VALID,24.0965,VALID,343,VALID,0.395312,
2008-03-23, 00:45:04,VALID,1003.7,VALID,0,VALID,94.1633,VALID,0,VALID,24.1142,VALID,2,VALID,0.604688,
2008-03-23, 00:46:04,VALID,1003.67,VALID,0,VALID,93.942,VALID,0,VALID,24.1726,VALID,332,VALID,0.521875,
2008-03-23, 00:47:04,VALID,1003.66,VALID,0,VALID,93.6598,VALID,0,VALID,24.231,VALID,355,VALID,0.597266,
2008-03-23, 00:48:04,VALID,1003.62,VALID,0,VALID,93.2631,VALID,0,VALID,24.3088,VALID,342,VALID,0.525391,
2008-03-23, 00:49:04,VALID,1003.57,VALID,0,VALID,92.874,VALID,0,VALID,24.3478,VALID,331,VALID,0.494141,
2008-03-23, 00:50:04,VALID,1003.59,VALID,0,VALID,92.5917,VALID,0,VALID,24.4062,VALID,344,VALID,0.308984,
2008-03-23, 00:51:04,VALID,1003.56,VALID,0,VALID,92.3018,VALID,0,VALID,24.4646,VALID,344,VALID,0.0554687,
2008-03-23, 00:52:04,VALID,1003.54,VALID,0,VALID,92.1264,VALID,0,VALID,24.4628,VALID,344,VALID,0.178516,
2008-03-23, 00:53:04,VALID,1003.51,VALID,0,VALID,92.0043,VALID,0,VALID,24.4841,VALID,344,VALID,0.0429688,
2008-03-23, 00:54:04,VALID,1003.49,VALID,0,VALID,91.9585,VALID,0,VALID,24.5054,VALID,343,VALID,0.0078125,
2008-03-23, 00:55:04,VALID,1003.46,VALID,0,VALID,91.8594,VALID,0,VALID,24.5035,VALID,297,VALID,0.180469,
2008-03-23, 00:56:04,VALID,1003.43,VALID,0,VALID,91.6686,VALID,0,VALID,24.523,VALID,344,VALID,0.6375,
2008-03-23, 00:57:04,VALID,1003.45,VALID,0,VALID,91.4703,VALID,0,VALID,24.562,VALID,344,VALID,0.535547,
2008-03-23, 00:58:04,VALID,1003.4,VALID,0,VALID,91.2262,VALID,0,VALID,24.6009,VALID,355,VALID,0.7375,
2008-03-23, 00:59:04,VALID,1003.4,VALID,0,VALID,91.0736,VALID,0,VALID,24.6398,VALID,356,VALID,0.582422,
2008-03-23, 01:00:04,VALID,1003.4,VALID,0,VALID,90.8752,VALID,0,VALID,24.6204,VALID,356,VALID,0.351953,
2008-03-23, 01:01:04,VALID,1003.41,VALID,0,VALID,90.7913,VALID,0,VALID,24.562,VALID,356,VALID,0.351953,
2008-03-23, 01:02:04,VALID,1003.42,VALID,0,VALID,91.0965,VALID,0,VALID,24.523,VALID,355,VALID,0.464063,
2008-03-23, 01:03:04,VALID,1003.39,VALID,0,VALID,91.3787,VALID,0,VALID,24.5035,VALID,355,VALID,0.434375,
2008-03-23, 01:04:04,VALID,1003.43,VALID,0,VALID,91.4703,VALID,0,VALID,24.4646,VALID,355,VALID,0.225,
2008-03-23, 01:05:04,VALID,1003.42,VALID,0,VALID,91.5084,VALID,0,VALID,24.4841,VALID,355,VALID,0.186719,
2008-03-23, 01:06:04,VALID,1003.39,VALID,0,VALID,91.5542,VALID,0,VALID,24.4841,VALID,355,VALID,0.849219,
2008-03-23, 01:07:04,VALID,1003.39,VALID,0,VALID,91.4169,VALID,0,VALID,24.523,VALID,356,VALID,0.613672,
2008-03-23, 01:08:04,VALID,1003.4,VALID,0,VALID,91.1728,VALID,0.100563,VALID,24.5425,VALID,356,VALID,0.626172,
2008-03-23, 01:09:04,VALID,1003.39,VALID,0,VALID,90.9668,VALID,0,VALID,24.5425,VALID,356,VALID,0.372266,
2008-03-23, 01:10:04,VALID,1003.38,VALID,0,VALID,90.7989,VALID,0,VALID,24.4841,VALID,356,VALID,0.304297,
2008-03-23, 01:11:04,VALID,1003.36,VALID,0,VALID,90.7989,VALID,0,VALID,24.4062,VALID,356,VALID,0,
2008-03-23, 01:12:04,VALID,1003.35,VALID,0,VALID,91.1117,VALID,0,VALID,24.3691,VALID,356,VALID,0,
2008-03-23, 01:13:04,VALID,1003.35,VALID,0,VALID,91.3711,VALID,0,VALID,24.3088,VALID,356,VALID,0,
2008-03-23, 01:14:04,VALID,1003.33,VALID,0,VALID,91.6152,VALID,0,VALID,24.2699,VALID,356,VALID,0,
2008-03-23, 01:15:04,VALID,1003.28,VALID,0,VALID,91.8136,VALID,0,VALID,24.2504,VALID,356,VALID,0,
2008-03-23, 01:16:04,VALID,1003.26,VALID,0,VALID,92.0043,VALID,0,VALID,24.2115,VALID,356,VALID,0,
2008-03-23, 01:17:04,VALID,1003.25,VALID,0,VALID,92.1645,VALID,0,VALID,24.192,VALID,356,VALID,0,
2008-03-23, 01:18:04,VALID,1003.21,VALID,0,VALID,92.2332,VALID,0.100563,VALID,24.192,VALID,356,VALID,0,
2008-03-23, 01:19:04,VALID,1003.18,VALID,0,VALID,92.1721,VALID,0,VALID,24.1707,VALID,356,VALID,0,
2008-03-23, 01:20:04,VALID,1003.14,VALID,0,VALID,92.2027,VALID,0,VALID,24.1531,VALID,356,VALID,0,
2008-03-23, 01:21:04,VALID,1003.12,VALID,0,VALID,92.195,VALID,0,VALID,24.1142,VALID,356,VALID,0,
2008-03-23, 01:22:04,VALID,1003.11,VALID,0,VALID,92.3629,VALID,0.100563,VALID,24.0947,VALID,357,VALID,0,
2008-03-23, 01:23:04,VALID,1003.1,VALID,0,VALID,92.5993,VALID,0,VALID,24.0752,VALID,359,VALID,0,
2008-03-23, 01:24:04,VALID,1003.08,VALID,0,VALID,92.6756,VALID,0,VALID,24.0363,VALID,16,VALID,0,
2008-03-23, 01:25:04,VALID,1003.08,VALID,0,VALID,92.8816,VALID,0,VALID,24.0381,VALID,17,VALID,0,
2008-03-23, 01:26:04,VALID,1003.07,VALID,0,VALID,92.9884,VALID,0,VALID,23.9566,VALID,18,VALID,0,
2008-03-23, 01:27:04,VALID,1003.06,VALID,0,VALID,93.08,VALID,0,VALID,23.9566,VALID,18,VALID,0,
2008-03-23, 01:28:04,VALID,1003.07,VALID,0,VALID,93.2859,VALID,0,VALID,23.9389,VALID,18,VALID,0,
2008-03-23, 01:29:04,VALID,1003.08,VALID,0,VALID,93.5148,VALID,0,VALID,23.9371,VALID,18,VALID,0,
2008-03-23, 01:30:04,VALID,1003.13,VALID,0,VALID,93.5301,VALID,0,VALID,23.9566,VALID,11,VALID,0.285937,
2008-03-23, 01:31:04,VALID,1003.11,VALID,0,VALID,93.4767,VALID,0,VALID,23.9779,VALID,5,VALID,0.154297,
2008-03-23, 01:32:04,VALID,1003.1,VALID,0,VALID,93.408,VALID,0,VALID,23.9973,VALID,5,VALID,0,
2008-03-23, 01:33:04,VALID,1003.1,VALID,0,VALID,93.4843,VALID,0,VALID,23.9973,VALID,358,VALID,0.168359,
2008-03-23, 01:34:04,VALID,1003.1,VALID,0,VALID,93.3851,VALID,0,VALID,24.0168,VALID,358,VALID,0,
2008-03-23, 01:35:04,VALID,1003.05,VALID,0,VALID,93.4004,VALID,0,VALID,24.0168,VALID,358,VALID,0.281641,
2008-03-23, 01:36:04,VALID,1003.05,VALID,0,VALID,93.3546,VALID,0,VALID,24.0345,VALID,358,VALID,0.391016,
2008-03-23, 01:37:04,VALID,1003.03,VALID,0,VALID,93.2859,VALID,0.100563,VALID,24.0752,VALID,358,VALID,0.0902344,
2008-03-23, 01:38:04,VALID,1003.02,VALID,0,VALID,93.2173,VALID,0,VALID,24.0947,VALID,358,VALID,0.351172,
2008-03-23, 01:39:04,VALID,1003.02,VALID,0,VALID,92.8587,VALID,0,VALID,24.0752,VALID,358,VALID,0.316797,
2008-03-23, 01:40:04,VALID,1003.01,VALID,0,VALID,92.7519,VALID,0,VALID,24.0363,VALID,358,VALID,0.380469,
2008-03-23, 01:41:04,VALID,1003.03,VALID,0,VALID,92.8053,VALID,0,VALID,24.0186,VALID,358,VALID,0.326953,
2008-03-23, 01:42:04,VALID,1003.04,VALID,0,VALID,92.9808,VALID,0,VALID,23.9584,VALID,358,VALID,0.4625,
2008-03-23, 01:43:04,VALID,1003,VALID,0,VALID,93.1105,VALID,0,VALID,23.9584,VALID,358,VALID,0.484375,
2008-03-23, 01:44:04,VALID,1003.02,VALID,0,VALID,93.1944,VALID,0,VALID,23.9195,VALID,358,VALID,0.431641,
2008-03-23, 01:45:04,VALID,1003.03,VALID,0,VALID,93.2402,VALID,0,VALID,23.9,VALID,358,VALID,0.525,
2008-03-23, 01:46:04,VALID,1003.05,VALID,0,VALID,93.4309,VALID,0,VALID,23.8805,VALID,358,VALID,0.333203,
2008-03-23, 01:47:04,VALID,1003.06,VALID,0,VALID,93.7818,VALID,0,VALID,23.8416,VALID,354,VALID,0.523438,
2008-03-23, 01:48:04,VALID,1003.06,VALID,0,VALID,93.9268,VALID,0,VALID,23.8611,VALID,353,VALID,0.614453,
2008-03-23, 01:49:04,VALID,1003.07,VALID,0,VALID,94.0565,VALID,0,VALID,23.9,VALID,344,VALID,0.403125,
2008-03-23, 01:50:04,VALID,1003.06,VALID,0,VALID,94.0717,VALID,0,VALID,23.9602,VALID,347,VALID,0.686328,
2008-03-23, 01:51:04,VALID,1003.04,VALID,0,VALID,93.8352,VALID,0,VALID,24.0168,VALID,349,VALID,0.403906,
2008-03-23, 01:52:04,VALID,1003.04,VALID,0,VALID,93.4843,VALID,0,VALID,24.0752,VALID,354,VALID,0.565625,
2008-03-23, 01:53:04,VALID,1003.06,VALID,0,VALID,93.2325,VALID,0,VALID,24.1142,VALID,358,VALID,0.362109,
2008-03-23, 01:54:04,VALID,1003.03,VALID,0,VALID,92.9274,VALID,0,VALID,24.1726,VALID,357,VALID,0.336328,
2008-03-23, 01:55:04,VALID,1003.03,VALID,0,VALID,92.5993,VALID,0,VALID,24.1726,VALID,357,VALID,0.261719,
2008-03-23, 01:56:04,VALID,1003.01,VALID,0,VALID,92.4849,VALID,0,VALID,24.1336,VALID,357,VALID,0.326562,
2008-03-23, 01:57:04,VALID,1003.03,VALID,0,VALID,92.462,VALID,0.100563,VALID,24.1142,VALID,357,VALID,0.344141,
2008-03-23, 01:58:04,VALID,1003.03,VALID,0,VALID,92.6756,VALID,0,VALID,24.0947,VALID,357,VALID,0.271875,
2008-03-23, 01:59:04,VALID,1003.04,VALID,0,VALID,92.6833,VALID,0,VALID,24.0929,VALID,357,VALID,0.241406,
2008-03-23, 02:00:04,VALID,1003,VALID,0,VALID,92.5917,VALID,0,VALID,24.1142,VALID,357,VALID,0.346484,
2008-03-23, 02:01:04,VALID,1003.05,VALID,0,VALID,92.5536,VALID,0,VALID,24.1142,VALID,357,VALID,0.169922,
2008-03-23, 02:02:04,VALID,1003.04,VALID,0,VALID,92.5612,VALID,0,VALID,24.1336,VALID,357,VALID,0.00234375,
2008-03-23, 02:03:04,VALID,1003.02,VALID,0,VALID,92.546,VALID,0.100563,VALID,24.1142,VALID,357,VALID,0.106641,
2008-03-23, 02:04:04,VALID,1003.06,VALID,0,VALID,92.5612,VALID,0.100563,VALID,24.1142,VALID,357,VALID,0,
2008-03-23, 02:05:04,VALID,1003.08,VALID,0,VALID,92.5688,VALID,0,VALID,24.0947,VALID,357,VALID,0,
2008-03-23, 02:06:04,VALID,1003.11,VALID,0,VALID,92.6146,VALID,0,VALID,24.0752,VALID,357,VALID,0,
2008-03-23, 02:07:04,VALID,1003.12,VALID,0,VALID,92.7138,VALID,0,VALID,24.0363,VALID,357,VALID,0,
2008-03-23, 02:08:04,VALID,1003.12,VALID,0,VALID,92.8511,VALID,0,VALID,24.0168,VALID,357,VALID,0.446094,
2008-03-23, 02:09:04,VALID,1003.13,VALID,0,VALID,92.8969,VALID,0.100563,VALID,23.9973,VALID,357,VALID,0.380078,
2008-03-23, 02:10:04,VALID,1003.15,VALID,0,VALID,93.0418,VALID,0,VALID,23.9779,VALID,357,VALID,0.276953,
2008-03-23, 02:11:04,VALID,1003.16,VALID,0,VALID,93.1334,VALID,0,VALID,23.9584,VALID,357,VALID,0.0898438,
2008-03-23, 02:12:04,VALID,1003.15,VALID,0,VALID,93.2249,VALID,0,VALID,23.9389,VALID,353,VALID,0.0351563,
2008-03-23, 02:13:04,VALID,1003.14,VALID,0,VALID,93.2859,VALID,0,VALID,23.9602,VALID,341,VALID,0.139844,
2008-03-23, 02:14:04,VALID,1003.14,VALID,0,VALID,93.2173,VALID,0.100563,VALID,23.9371,VALID,343,VALID,0.349219,
2008-03-23, 02:15:04,VALID,1003.12,VALID,0,VALID,93.2173,VALID,0,VALID,23.9389,VALID,343,VALID,0.316406,
2008-03-23, 02:16:04,VALID,1003.08,VALID,0,VALID,93.3546,VALID,0,VALID,23.9,VALID,343,VALID,0.196875,
2008-03-23, 02:17:04,VALID,1003.07,VALID,0,VALID,93.3622,VALID,0,VALID,23.8611,VALID,343,VALID,0.286328,
2008-03-23, 02:18:04,VALID,1003.05,VALID,0,VALID,93.4462,VALID,0,VALID,23.8629,VALID,344,VALID,0.253906,
2008-03-23, 02:19:04,VALID,1003.04,VALID,0,VALID,93.5377,VALID,0,VALID,23.8027,VALID,360,VALID,0.445703,
2008-03-23, 02:20:04,VALID,1003.02,VALID,0,VALID,93.5987,VALID,0,VALID,23.7443,VALID,8,VALID,0.555078,
2008-03-23, 02:21:04,VALID,1003,VALID,0,VALID,93.6598,VALID,0,VALID,23.7053,VALID,8,VALID,0.448828,
2008-03-23, 02:22:04,VALID,1002.98,VALID,0,VALID,93.8505,VALID,0,VALID,23.6664,VALID,8,VALID,0.420703,
2008-03-23, 02:23:04,VALID,1002.97,VALID,0,VALID,94.0717,VALID,0,VALID,23.6664,VALID,8,VALID,0.317969,
2008-03-23, 02:24:04,VALID,1002.95,VALID,0,VALID,93.9802,VALID,0,VALID,23.6275,VALID,8,VALID,0.378516,
2008-03-23, 02:25:04,VALID,1002.92,VALID,0,VALID,94.0794,VALID,0,VALID,23.6275,VALID,8,VALID,0.526953,
2008-03-23, 02:26:04,VALID,1002.94,VALID,0,VALID,94.1709,VALID,0,VALID,23.6098,VALID,8,VALID,0.388281,
2008-03-23, 02:27:04,VALID,1002.92,VALID,0,VALID,94.3616,VALID,0,VALID,23.5885,VALID,8,VALID,0.35,
2008-03-23, 02:28:04,VALID,1002.9,VALID,0,VALID,94.4303,VALID,0,VALID,23.5691,VALID,8,VALID,0.353516,
2008-03-23, 02:29:04,VALID,1002.88,VALID,0,VALID,94.3769,VALID,0,VALID,23.5691,VALID,8,VALID,0.4625,
2008-03-23, 02:30:04,VALID,1002.87,VALID,0,VALID,94.3692,VALID,0,VALID,23.5496,VALID,8,VALID,0.385938,
2008-03-23, 02:31:04,VALID,1002.9,VALID,0,VALID,94.3921,VALID,0,VALID,23.5319,VALID,8,VALID,0.50625,
2008-03-23, 02:32:04,VALID,1002.89,VALID,0,VALID,94.5066,VALID,0,VALID,23.4912,VALID,8,VALID,0.448047,
2008-03-23, 02:33:04,VALID,1002.87,VALID,0,VALID,94.5676,VALID,0,VALID,23.4718,VALID,8,VALID,0.498437,
2008-03-23, 02:34:04,VALID,1002.87,VALID,0,VALID,94.621,VALID,0,VALID,23.4523,VALID,8,VALID,0.445703,
2008-03-23, 02:35:04,VALID,1002.89,VALID,0,VALID,94.6897,VALID,0,VALID,23.4523,VALID,8,VALID,0.441406,
2008-03-23, 02:36:04,VALID,1002.89,VALID,0,VALID,94.7888,VALID,0,VALID,23.4134,VALID,8,VALID,0.453516,
2008-03-23, 02:37:04,VALID,1002.9,VALID,0,VALID,94.8117,VALID,0,VALID,23.4134,VALID,8,VALID,0.43125,
2008-03-23, 02:38:04,VALID,1002.89,VALID,0,VALID,94.827,VALID,0,VALID,23.3939,VALID,8,VALID,0.482031,
2008-03-23, 02:39:04,VALID,1002.89,VALID,0,VALID,94.8575,VALID,0,VALID,23.4151,VALID,8,VALID,0.477344,
2008-03-23, 02:40:04,VALID,1002.88,VALID,0,VALID,94.9033,VALID,0,VALID,23.3744,VALID,8,VALID,0.401172,
2008-03-23, 02:41:04,VALID,1002.85,VALID,0,VALID,94.9567,VALID,0,VALID,23.3744,VALID,8,VALID,0.465625,
2008-03-23, 02:42:04,VALID,1002.82,VALID,0,VALID,95.0864,VALID,0.100563,VALID,23.3744,VALID,8,VALID,0.430859,
2008-03-23, 02:43:04,VALID,1002.85,VALID,0,VALID,95.1855,VALID,0,VALID,23.3744,VALID,8,VALID,0.355859,
2008-03-23, 02:44:04,VALID,1002.84,VALID,0,VALID,95.2313,VALID,0,VALID,23.4151,VALID,8,VALID,0.423438,
2008-03-23, 02:45:04,VALID,1002.8,VALID,0,VALID,95.2084,VALID,0,VALID,23.3939,VALID,8,VALID,0.365234,
2008-03-23, 02:46:04,VALID,1002.8,VALID,0,VALID,95.2618,VALID,0,VALID,23.3939,VALID,8,VALID,0.26875,
2008-03-23, 02:47:04,VALID,1002.78,VALID,0,VALID,95.3152,VALID,0.100563,VALID,23.4134,VALID,8,VALID,0.372266,
2008-03-23, 02:48:04,VALID,1002.79,VALID,0,VALID,95.361,VALID,0,VALID,23.4116,VALID,8,VALID,0.15625,
2008-03-23, 02:49:04,VALID,1002.78,VALID,0,VALID,95.3229,VALID,0,VALID,23.4328,VALID,8,VALID,0.45625,
2008-03-23, 02:50:04,VALID,1002.81,VALID,0,VALID,95.506,VALID,0,VALID,23.4718,VALID,6,VALID,0.410156,
2008-03-23, 02:51:04,VALID,1002.8,VALID,0,VALID,95.4297,VALID,0,VALID,23.5107,VALID,354,VALID,0.604297,
2008-03-23, 02:52:04,VALID,1002.81,VALID,0,VALID,95.2695,VALID,0,VALID,23.5302,VALID,354,VALID,0.465625,
2008-03-23, 02:53:04,VALID,1002.81,VALID,0,VALID,95.1627,VALID,0,VALID,23.5496,VALID,354,VALID,0.448438,
2008-03-23, 02:54:04,VALID,1002.83,VALID,0,VALID,95.0101,VALID,0.100563,VALID,23.5691,VALID,354,VALID,0.5125,
2008-03-23, 02:55:04,VALID,1002.82,VALID,0,VALID,94.9033,VALID,0.100563,VALID,23.5691,VALID,354,VALID,0.453125,
2008-03-23, 02:56:04,VALID,1002.81,VALID,0,VALID,94.7965,VALID,0,VALID,23.5302,VALID,354,VALID,0.480469,
2008-03-23, 02:57:04,VALID,1002.79,VALID,0,VALID,94.7888,VALID,0,VALID,23.5107,VALID,354,VALID,0.450391,
2008-03-23, 02:58:04,VALID,1002.79,VALID,0,VALID,94.7965,VALID,0,VALID,23.4912,VALID,356,VALID,0.523438,
2008-03-23, 02:59:04,VALID,1002.78,VALID,0,VALID,94.8194,VALID,0.100563,VALID,23.4718,VALID,356,VALID,0.339063,
2008-03-23, 03:00:04,VALID,1002.76,VALID,0,VALID,94.9185,VALID,0.100563,VALID,23.4505,VALID,356,VALID,0.472266,
2008-03-23, 03:01:04,VALID,1002.77,VALID,0,VALID,95.033,VALID,0,VALID,23.4718,VALID,356,VALID,0.471484,
2008-03-23, 03:02:04,VALID,1002.77,VALID,0,VALID,95.1474,VALID,0.100563,VALID,23.4523,VALID,356,VALID,0.412891,
2008-03-23, 03:03:04,VALID,1002.76,VALID,0,VALID,95.155,VALID,0.100563,VALID,23.4718,VALID,356,VALID,0.480859,
2008-03-23, 03:04:04,VALID,1002.77,VALID,0,VALID,95.1321,VALID,0,VALID,23.4912,VALID,356,VALID,0.421875,
2008-03-23, 03:05:04,VALID,1002.77,VALID,0,VALID,95.0635,VALID,0,VALID,23.4523,VALID,356,VALID,0,
2008-03-23, 03:06:04,VALID,1002.78,VALID,0,VALID,95.0711,VALID,0.100563,VALID,23.4328,VALID,356,VALID,0,
2008-03-23, 03:07:04,VALID,1002.79,VALID,0,VALID,95.0482,VALID,0,VALID,23.4134,VALID,358,VALID,0.571484,
2008-03-23, 03:08:04,VALID,1002.8,VALID,0,VALID,95.0864,VALID,0.100563,VALID,23.3921,VALID,358,VALID,0.473437,
2008-03-23, 03:09:04,VALID,1002.82,VALID,0,VALID,95.0864,VALID,0,VALID,23.3727,VALID,358,VALID,0.432813,
2008-03-23, 03:10:04,VALID,1002.8,VALID,0,VALID,95.1245,VALID,0,VALID,23.3744,VALID,358,VALID,0.396094,
2008-03-23, 03:11:04,VALID,1002.77,VALID,0,VALID,95.2237,VALID,0,VALID,23.3744,VALID,358,VALID,0.386719,
2008-03-23, 03:12:04,VALID,1002.77,VALID,0,VALID,95.2695,VALID,0,VALID,23.3744,VALID,358,VALID,0.371094,
2008-03-23, 03:13:04,VALID,1002.76,VALID,0,VALID,95.4831,VALID,0,VALID,23.3939,VALID,358,VALID,0.484375,
2008-03-23, 03:14:04,VALID,1002.75,VALID,0,VALID,95.4526,VALID,0,VALID,23.4134,VALID,358,VALID,0.448047,
2008-03-23, 03:15:04,VALID,1002.74,VALID,0,VALID,95.3915,VALID,0,VALID,23.4328,VALID,358,VALID,0.484766,
2008-03-23, 03:16:04,VALID,1002.71,VALID,0,VALID,95.3534,VALID,0,VALID,23.4328,VALID,358,VALID,0.390234,
2008-03-23, 03:17:04,VALID,1002.68,VALID,0,VALID,95.3076,VALID,0,VALID,23.4134,VALID,358,VALID,0.511719,
2008-03-23, 03:18:04,VALID,1002.7,VALID,0,VALID,95.2847,VALID,0.100563,VALID,23.3939,VALID,358,VALID,0.503906,
2008-03-23, 03:19:04,VALID,1002.67,VALID,0,VALID,95.2923,VALID,0,VALID,23.3744,VALID,358,VALID,0.573828,
2008-03-23, 03:20:04,VALID,1002.63,VALID,0,VALID,95.3381,VALID,0,VALID,23.3744,VALID,358,VALID,0.4875,
2008-03-23, 03:21:04,VALID,1002.63,VALID,0,VALID,95.4449,VALID,0,VALID,23.3939,VALID,358,VALID,0.481641,
2008-03-23, 03:22:04,VALID,1002.6,VALID,0,VALID,95.5136,VALID,0,VALID,23.4134,VALID,358,VALID,0.430078,
2008-03-23, 03:23:04,VALID,1002.61,VALID,0,VALID,95.5212,VALID,0,VALID,23.4134,VALID,358,VALID,0.473437,
2008-03-23, 03:24:04,VALID,1002.58,VALID,0,VALID,95.5517,VALID,0,VALID,23.3939,VALID,357,VALID,0.505078,
2008-03-23, 03:25:04,VALID,1002.61,VALID,0,VALID,95.6814,VALID,0,VALID,23.4328,VALID,353,VALID,0.539063,
2008-03-23, 03:26:04,VALID,1002.58,VALID,0,VALID,95.6662,VALID,0.100563,VALID,23.4718,VALID,353,VALID,0.459375,
2008-03-23, 03:27:04,VALID,1002.6,VALID,0,VALID,95.7272,VALID,0,VALID,23.5319,VALID,357,VALID,0.616797,
2008-03-23, 03:28:04,VALID,1002.61,VALID,0,VALID,95.5594,VALID,0,VALID,23.5709,VALID,357,VALID,0.517969,
2008-03-23, 03:29:04,VALID,1002.59,VALID,0,VALID,95.3991,VALID,0,VALID,23.5496,VALID,359,VALID,0.494922,
2008-03-23, 03:30:04,VALID,1002.6,VALID,0,VALID,95.4602,VALID,0,VALID,23.5691,VALID,359,VALID,0.470313,
2008-03-23, 03:31:04,VALID,1002.6,VALID,0,VALID,95.4526,VALID,0,VALID,23.6098,VALID,359,VALID,0.0988281,
2008-03-23, 03:32:04,VALID,1002.62,VALID,0,VALID,95.4144,VALID,0,VALID,23.6487,VALID,356,VALID,0.595312,
2008-03-23, 03:33:04,VALID,1002.65,VALID,0,VALID,95.1779,VALID,0,VALID,23.6682,VALID,354,VALID,0.472266,
2008-03-23, 03:34:04,VALID,1002.66,VALID,0,VALID,94.9948,VALID,0,VALID,23.6682,VALID,354,VALID,0.515234,
2008-03-23, 03:35:04,VALID,1002.66,VALID,0,VALID,95.0482,VALID,0,VALID,23.6682,VALID,354,VALID,0.351953,
2008-03-23, 03:36:04,VALID,1002.67,VALID,0,VALID,95.1016,VALID,0,VALID,23.6877,VALID,354,VALID,0.534375,
2008-03-23, 03:37:04,VALID,1002.7,VALID,0,VALID,94.9643,VALID,0,VALID,23.6664,VALID,354,VALID,0.460547,
2008-03-23, 03:38:04,VALID,1002.67,VALID,0,VALID,94.9185,VALID,0.100563,VALID,23.7248,VALID,344,VALID,0.375,
2008-03-23, 03:39:04,VALID,1002.66,VALID,0,VALID,94.766,VALID,0.100563,VALID,23.6841,VALID,348,VALID,0.367969,
2008-03-23, 03:40:04,VALID,1002.63,VALID,0,VALID,94.8728,VALID,0.100563,VALID,23.7443,VALID,348,VALID,0,
2008-03-23, 03:41:04,VALID,1002.62,VALID,0,VALID,94.8346,VALID,0.100563,VALID,23.7637,VALID,348,VALID,0,
2008-03-23, 03:42:04,VALID,1002.61,VALID,0,VALID,94.9262,VALID,0.100563,VALID,23.8027,VALID,347,VALID,0.371484,
2008-03-23, 03:43:04,VALID,1002.61,VALID,0,VALID,94.8499,VALID,0.100563,VALID,23.8416,VALID,347,VALID,0,
2008-03-23, 03:44:04,VALID,1002.61,VALID,0,VALID,94.7888,VALID,0.100563,VALID,23.8611,VALID,347,VALID,0.140234,
2008-03-23, 03:45:04,VALID,1002.62,VALID,0,VALID,94.7202,VALID,0.100563,VALID,23.8787,VALID,352,VALID,0.334375,